• Join FlightAware (Why Join?)
  • Login
  • US Flag GB Flag 
09:31 EST


 

Airport Tracker/Info


-or-


 

Live Flight TrackerFlight Track Log ✈ AAY844 ✈ 06-Jun-2014 ✈ KPIE - KSWF

Flight Track Log - Related Links

Times and Time Zones

All times are in EDT time to prevent confusion due to time zone crossing. See the AAY844 flight status page for this flight to view local times or setup timezone preferences in your user account.

Time Position Orientation Groundspeed Altitude Reporting Facility
EDT Latitude Longitude Course Direction KTS MPH feet Rate Location/Type
15:03 27.9333 -82.7000 24° Northeast 173 199 700  Level Tampa TRACON
15:05 28.0000 -82.6667 24° Northeast 235 270 2,600 2,280 Climbing Tampa TRACON
15:07 28.1478 -82.6667 360° North 230 265 8,100 2,400 Climbing Jacksonville Center
15:08 28.2164 -82.6522 11° North 244 281 9,900 1,680 Climbing Jacksonville Center
15:09 28.3061 -82.6261 14° North 287 330 11,600 1,620 Climbing Jacksonville Center
15:10 28.4064 -82.5953 15° North 333 383 13,200 2,160 Climbing Jacksonville Center
15:11 28.5106 -82.5714 11° North 363 418 16,000 2,220 Climbing Jacksonville Center
15:12 28.6192 -82.5803 356° North 376 433 17,700 1,620 Climbing Jacksonville Center
15:13 28.7317 -82.5872 357° North 390 449 19,300 1,620 Climbing Jacksonville Center
15:14 28.8486 -82.5914 358° North 407 468 21,000 1,620 Climbing Jacksonville Center
15:15 28.9678 -82.5983 357° North 417 480 22,600 1,440 Climbing Jacksonville Center
15:16 29.0889 -82.6075 356° North 425 489 23,900 1,440 Climbing Jacksonville Center
15:17 29.2119 -82.6119 358° North 436 502 25,500 1,620 Climbing Jacksonville Center
15:18 29.3331 -82.6186 357° North 436 502 27,200 1,740 Climbing Jacksonville Center
15:19 29.4667 -82.6253 358° North 436 502 29,000 1,500 Climbing Jacksonville Center
15:20 29.5856 -82.6322 357° North 436 502 30,200 960 Climbing Jacksonville Center
15:21 29.7067 -82.6367 358° North 436 502 31,000 360 Climbing Jacksonville Center
15:22 29.8258 -82.6508 354° North 431 496 31,000  Level Jacksonville Center
15:23 29.9469 -82.6578 357° North 425 489 31,000 120 Level Jacksonville Center
15:24 30.0639 -82.6503 North 425 489 31,300 480 Climbing Jacksonville Center
15:25 30.1828 -82.6258 10° North 420 483 32,000 720 Climbing Jacksonville Center
15:26 30.3017 -82.5992 11° North 425 489 32,800 480 Climbing Jacksonville Center
15:27 30.4206 -82.5722 11° North 430 495 33,000  Climbing Jacksonville Center
15:28 30.5353 -82.5211 21° North 430 495 32,900  Descending Jacksonville Center
15:29 30.6331 -82.4267 40° Northeast 435 501 33,000  Climbing Jacksonville Center
15:30 30.7247 -82.3294 42° Northeast 435 501 33,000  Level Jacksonville Center
15:31 30.8181 -82.2347 41° Northeast 441 507 33,000  Level Jacksonville Center
15:32 30.9136 -82.1394 41° Northeast 446 513 33,000  Level Jacksonville Center
15:33 31.0069 -82.0419 42° Northeast 446 513 33,000  Level Jacksonville Center
15:34 31.1022 -81.9439 41° Northeast 446 513 33,000 -60 Level Jacksonville Center
15:35 31.1956 -81.8458 42° Northeast 446 513 32,900  Descending Jacksonville Center
15:36 31.2886 -81.7525 41° Northeast 439 505 33,000  Climbing Jacksonville Center
15:37 31.3817 -81.6492 43° Northeast 447 514 33,000  Level Jacksonville Center
15:38 31.4683 -81.5603 41° Northeast 453 521 33,000  Level Jacksonville Center
15:39 31.5614 -81.4614 42° Northeast 453 521 33,000  Level Jacksonville Center
15:40 31.6686 -81.3522 41° Northeast 453 521 33,000  Level Jacksonville Center
15:41 31.7678 -81.2650 37° Northeast 453 521 33,000  Level Jacksonville Center
15:42 31.8628 -81.1853 35° Northeast 453 521 33,000  Level Jacksonville Center
15:43 31.9761 -81.0850 37° Northeast 458 527 33,000  Level Jacksonville Center
15:44 32.0792 -80.9972 36° Northeast 458 527 33,000  Level Jacksonville Center
15:45 32.1822 -80.9067 37° Northeast 458 527 33,000  Level Jacksonville Center
15:46 32.2769 -80.8261 36° Northeast 458 527 33,000  Level Jacksonville Center
15:47 32.3903 -80.7275 36° Northeast 463 533 33,000 -60 Level Jacksonville Center
15:48 32.4931 -80.6339 38° Northeast 458 527 32,900  Descending Jacksonville Center
15:49 32.5956 -80.5428 37° Northeast 458 527 33,000  Climbing Jacksonville Center
15:50 32.6983 -80.4511 37° Northeast 458 527 33,000 -60 Level Jacksonville Center
15:51 32.8008 -80.3619 36° Northeast 458 527 32,900 -60 Descending Jacksonville Center
15:52 32.9014 -80.2675 38° Northeast 458 527 32,900  Level Jacksonville Center
15:53 33.0039 -80.1803 36° Northeast 476 548 33,000  Climbing Jacksonville Center
15:54 33.1042 -80.0881 38° Northeast 465 535 33,000  Level Jacksonville Center
15:55 33.2064 -79.9956 37° Northeast 465 535 33,000  Level Jacksonville Center
15:56 33.3106 -79.9050 36° Northeast 465 535 33,000  Level Jacksonville Center
15:57 33.4128 -79.8094 38° Northeast 465 535 33,000  Level Jacksonville Center
15:58 33.5147 -79.7189 37° Northeast 465 535 33,000  Level Jacksonville Center
15:59 33.6167 -79.6228 38° Northeast 465 535 33,000  Level Jacksonville Center
16:00 33.7206 -79.5292 37° Northeast 465 535 33,000 -60 Level Jacksonville Center
16:01 33.8244 -79.4353 37° Northeast 465 535 32,900  Descending Jacksonville Center
16:02 33.9222 -79.3464 37° Northeast 458 527 33,000  Climbing Jacksonville Center
16:03 34.0928 -79.1878 38° Northeast 451 519 33,000  Level Washington Center
16:04 34.1978 -79.0919 37° Northeast 461 531 33,000  Level Washington Center
16:05 34.3028 -78.9983 36° Northeast 461 531 33,000  Level Washington Center
16:06 34.4136 -78.9150 32° Northeast 461 531 33,000  Level Washington Center
16:07 34.5372 -78.8167 33° Northeast 478 550 33,000  Level Washington Center
16:08 34.6503 -78.7300 32° Northeast 478 550 33,000  Level Washington Center
16:09 34.7522 -78.6558 31° Northeast 478 550 33,000  Level Washington Center
16:10 34.8736 -78.5592 33° Northeast 473 544 33,000  Level Washington Center
16:11 34.9842 -78.4744 32° Northeast 473 544 33,000  Level Washington Center
16:12 35.0989 -78.3869 32° Northeast 473 544 33,000  Level Washington Center
16:13 35.2117 -78.2994 32° Northeast 473 544 33,000  Level Washington Center
16:14 35.3242 -78.2092 33° Northeast 473 544 33,000  Level Washington Center
16:15 35.4408 -78.1236 31° Northeast 478 550 33,000  Level Washington Center
16:16 35.5425 -78.0425 33° Northeast 486 559 33,000  Level Washington Center
16:17 35.6569 -77.9567 31° Northeast 486 559 33,000  Level Washington Center
16:18 35.7692 -77.8703 32° Northeast 486 559 33,000  Level Washington Center
16:19 35.8836 -77.7789 33° Northeast 486 559 33,000  Level Washington Center
16:20 35.9978 -77.6894 32° Northeast 486 559 33,000  Level Washington Center
16:21 36.1081 -77.5869 37° Northeast 486 559 33,000  Level Washington Center
16:22 36.2142 -77.4842 38° Northeast 486 559 33,000  Level Washington Center
16:23 36.3200 -77.3889 36° Northeast 481 554 33,000  Level Washington Center
16:24 36.4236 -77.2878 38° Northeast 475 547 33,000  Level Washington Center
16:25 36.5419 -77.1742 38° Northeast 481 554 33,000  Level Washington Center
16:26 36.6497 -77.0728 37° Northeast 481 554 33,000  Level Washington Center
16:27 36.7614 -76.9711 36° Northeast 486 559 33,000  Level Washington Center
16:28 36.8689 -76.8719 36° Northeast 486 559 33,000  Level Washington Center
16:29 36.9786 -76.7722 36° Northeast 486 559 33,000  Level Washington Center
16:30 37.0858 -76.6725 37° Northeast 486 559 33,000  Level Washington Center
16:31 37.1953 -76.5747 35° Northeast 486 559 33,000  Level Washington Center
16:32 37.3064 -76.4744 36° Northeast 486 559 33,000  Level Washington Center
16:33 37.4053 -76.3842 36° Northeast 481 554 33,000  Level Washington Center
16:34 37.5164 -76.2856 35° Northeast 486 559 33,000  Level Washington Center
16:35 37.6253 -76.1844 36° Northeast 481 554 33,000  Level Washington Center
16:36 37.7447 -76.0778 35° Northeast 481 554 33,000  Level Washington Center
16:37 37.8389 -75.9836 38° Northeast 481 554 33,000  Level Washington Center
16:38 37.9497 -75.8814 36° Northeast 482 555 33,000  Level Washington Center
16:39 38.0583 -75.7789 37° Northeast 482 555 33,000  Level Washington Center
16:40 38.1669 -75.6764 37° Northeast 482 555 33,000  Level Washington Center
16:41 38.2753 -75.5758 36° Northeast 482 555 33,000  Level Washington Center
16:42 38.3900 -75.4936 29° Northeast 482 555 33,000  Level Washington Center
16:43 38.5150 -75.4350 20° North 468 539 33,000  Level Washington Center
16:44 38.6400 -75.3844 18° North 468 539 33,000  Level Washington Center
16:45 38.7669 -75.3386 16° North 468 539 33,000  Level Washington Center
16:46 38.8919 -75.2875 18° North 468 539 33,000 -60 Level Washington Center
16:47 39.0189 -75.2336 18° North 468 539 32,900  Descending Washington Center
16:48 39.1419 -75.1794 19° North 463 533 33,000  Climbing Washington Center
16:49 39.2667 -75.1278 18° North 463 533 33,000  Level Washington Center
16:50 39.3767 -75.0250 36° Northeast 463 533 33,000  Level Washington Center
16:51 39.4761 -74.9061 43° Northeast 476 548 33,000  Level Washington Center
16:52 39.5733 -74.7867 43° Northeast 476 548 33,000 -540 Level Washington Center
16:53 39.6847 -74.6533 43° Northeast 488 562 32,000 -960 Descending Washington Center
16:54 39.7858 -74.5358 42° Northeast 488 562 31,100 -1,140 Descending Washington Center
16:55 39.8889 -74.4125 43° Northeast 493 567 29,700 -1,440 Descending Washington Center
16:56 39.9469 -74.3394 44° Northeast 486 559 28,700 -1,620 Descending New York Center
16:57 40.0464 -74.2225 42° Northeast 486 559 27,000 -1,740 Descending New York Center
16:58 40.1417 -74.1053 43° Northeast 480 552 25,300 -1,020 Descending New York Center
16:59 40.2322 -73.9928 43° Northeast 465 535 25,000 -240 Descending New York Center
17:00 40.3247 -73.8853 42° Northeast 446 513 24,900 -360 Descending New York Center
17:01 40.4236 -73.7644 43° Northeast 441 507 24,400 -900 Descending New York Center
17:02 40.5161 -73.6511 43° Northeast 441 507 23,100 -1,380 Descending New York Center
17:04 40.6481 -73.4814 44° Northeast 442 509 20,900 -1,380 Descending Boston Center
17:05 40.7406 -73.3678 43° Northeast 427 491 19,500 -960 Descending Boston Center
17:06 40.8225 -73.2661 43° Northeast 410 472 19,000 -300 Descending Boston Center
17:07 40.9089 -73.1675 41° Northeast 409 471 19,000  Level Boston Center
17:08 40.9944 -73.0678 41° Northeast 409 471 19,000 -600 Level Boston Center
17:09 41.0972 -72.9478 41° Northeast 408 470 17,800 -1,080 Descending Boston Center
17:10 41.1797 -72.8481 42° Northeast 403 464 16,800 -1,020 Descending Boston Center
17:11 41.2617 -72.7531 41° Northeast 392 451 15,800 -540 Descending Boston Center
17:12 41.3653 -72.7242 12° North 358 412 15,800 -420 Level Boston Center
17:13 41.4381 -72.8044 320° Northwest 346 398 15,000 -960 Descending Boston Center
17:14 41.4761 -72.9292 292° West 340 391 13,900 -1,080 Descending Boston Center
17:15 41.5272 -73.0356 303° West 340 391 12,900 -960 Descending Boston Center
17:16 41.5747 -73.1436 300° West 338 389 12,000 -780 Descending Boston Center
17:17 41.6247 -73.2606 300° West 338 389 11,300 -540 Descending Boston Center
17:18 41.6733 -73.3708 301° West 334 384 10,900 -720 Descending Boston Center
17:19 41.7158 -73.4703 300° West 313 360 9,900 -1,080 Descending Boston Center
17:20 41.7517 -73.5561 299° West 273 314 8,700 -1,500 Descending Boston Center
17:21 41.7917 -73.6436 302° West 262 302 6,800 -1,440 Descending Boston Center
17:22 41.7908 -73.7342 269° West 272 313 5,800 -1,020 Descending Boston Center
17:23 41.7361 -73.8150 228° Southwest 273 314 4,700 -900 Descending Boston Center
17:24 41.6742 -73.8719 214° Southwest 266 306 4,000 -840 Descending Boston Center
17:25 41.6186 -73.9114 208° Southwest 231 266 3,000 -780 Descending Boston Center
17:26 41.5628 -73.9553 210° Southwest 218 251 2,500 -600 Descending Boston Center
17:27 41.5222 -74.0000 220° Southwest 189 217 1,800 -720 Descending Boston Center
17:28 41.5122 -74.0581 257° West 153 176 1,100 -660 Descending Boston Center
17:29 41.5047 -74.1067 258° West 141 162 500 -600 Descending Boston Center
17:31 41.5000 -74.1000 217° Southwest  Level FlightAware Approximate